Current Weather Conditions: station 62160

sailwx.info

Wind from 170

Wave height 1.1 meters (3 feet), 4 second period

Air temperature 17.5° C
Dewpoint 15.0° C

Last reported at 2019-Aug-24 08:00 UTC.
Time now 2019-Aug-24 09:58 UTC

Location: N 56°36' E 002°18'.
View on Google Maps.

See reports from other nearby stations

  
Tides and Currents Weather Stations Pressure Air Temp Water Temp Dewpoint Dewpoint Depression Visibility Wind Speed Wind Dir Waves Ship Positions
date/time (UTC)wind fromknots sea level pressurealtimeterstation pressurevisibilityair tempwater tempwave heightnotes
2019-Aug-24 08:00 170 17.5 1.1
2019-Aug-24 07:00 170 17.1 1.0
2019-Aug-24 06:00 180 17.1 0.9
2019-Aug-24 05:00 170 16.8 0.8
2019-Aug-24 04:00 170 16.6 0.8
2019-Aug-24 03:00 170 16.7 0.8
2019-Aug-24 02:00 170 16.7 0.8
2019-Aug-24 01:00 170 16.6 0.8
2019-Aug-24 00:00 180 16.8 0.8
2019-Aug-23 23:00 180 16.8 0.9
2019-Aug-23 22:00 180 16.9 1.0
2019-Aug-23 21:00 190 16.9 1.0
2019-Aug-23 20:00 190 17.1 1.2
2019-Aug-23 19:00 200 17.0 1.3
2019-Aug-23 18:00 200 17.4 1.2
2019-Aug-23 17:00 210 17.9 1.2
2019-Aug-23 16:00 220 17.9 1.2
2019-Aug-23 15:00 210 18.1 1.4
2019-Aug-23 14:00 230 17.6 1.4
2019-Aug-23 13:00 240 17.8 1.5
2019-Aug-23 12:00 220 17.9 1.6
2019-Aug-23 11:00 220 18.5 1.6
2019-Aug-23 10:00 220 17.9 1.8
2019-Aug-23 09:00 220 18.9 1.6
2019-Aug-23 08:00 220 17.1 1.8
2019-Aug-23 07:00 230 17.0 2.0
2019-Aug-23 06:00 230 16.9 1.8
2019-Aug-23 05:00 240 16.6 1.9
2019-Aug-23 04:00 230 16.5 1.7
2019-Aug-23 03:00 230 16.6 1.5
2019-Aug-23 02:00 230 16.6 1.8
2019-Aug-23 01:00 230 16.6 1.6
2019-Aug-23 00:00 220 16.8 1.6
2019-Aug-22 23:00 210 16.7 1.5
2019-Aug-22 22:00 200 16.5 1.6
2019-Aug-22 21:00 200 16.4 1.7
2019-Aug-22 20:00 190 16.5 1.9
2019-Aug-22 19:00 200 16.7 2.2
2019-Aug-22 18:00 200 16.7 2.0
2019-Aug-22 17:00 200 16.5 1.8
2019-Aug-22 16:00 200 16.6 1.9
2019-Aug-22 15:00 190 16.2 1.9
2019-Aug-22 14:00 200 16.5 1.8
2019-Aug-22 13:00 200 16.5 2.1
2019-Aug-22 12:00 210 16.4 1.9
2019-Aug-22 11:00 210 16.4 1.9
2019-Aug-22 10:00 210 16.7 2.1
2019-Aug-22 09:00 220 16.2 2.3